{"data":{"norad_id":53734,"intl_designator":"2022-107AL","name":"STARLINK-4616","alt_names":[],"object_type":"PAYLOAD","status":"ACTIVE","operator":null,"country":"US","launch_date":"2022-09-05","launch_site_code":"AFETR","launch_vehicle":null,"mission":null,"orbit_class":"UNKNOWN","rcs_meters":null,"size_class":null,"mass_kg":null,"dimensions":null,"purposes":["comms"],"wikipedia_slug":null,"has_3d_model":false,"image_url":null,"decayed_at":null,"tle_current":{"epoch":"2026-05-24T17:46:06.735936Z","epoch_age_seconds":93497,"freshness":"FRESH","line1":"1 53734U 22107AL  26144.74035574  .00000523  00000+0  50923-4 0  9998","line2":"2 53734  53.2151 272.7883 0001146  88.8379 271.2745 15.08840448206067","mean_motion":15.08840448,"eccentricity":0.0001146,"inclination_deg":53.2151,"raan_deg":272.7883,"arg_perigee_deg":88.8379,"mean_anomaly_deg":271.2745,"bstar":5.0923e-5,"rev_number":20606,"period_min":95.437526340757,"perigee_km":538.94923067202,"apogee_km":540.53480854332,"semimajor_km":6917.8790196077,"source":"CELESTRAK","updated_at":"2026-05-25T13:38:17.538098Z"}}}